TimeAKDT,TemperatureF,Dew PointF,Humidity,Sea Level PressureIn,VisibilityMPH,Wind Direction,Wind SpeedMPH,Gust SpeedMPH,PrecipitationIn,Events,Conditions,WindDirDegrees,DateUTC
12:34 AM,59.0,51.8,77,29.70,4.0,Calm,Calm,-,N/A,,Haze,0,2013-08-10 08:34:00
12:54 AM,59.0,51.8,77,29.71,-9999.0,Calm,Calm,-,N/A,,Haze,0,2013-08-10 08:54:00
12:56 AM,59.0,51.1,75,29.71,3.0,Calm,Calm,-,N/A,,Haze,0,2013-08-10 08:56:00
1:56 AM,57.9,52.0,81,29.73,3.0,ENE,3.5,-,N/A,,Haze,60,2013-08-10 09:56:00
2:15 AM,57.2,51.8,82,29.74,2.5,ENE,3.5,-,N/A,,Haze,60,2013-08-10 10:15:00
2:52 AM,57.2,48.2,72,29.75,2.5,Calm,Calm,-,N/A,,Haze,0,2013-08-10 10:52:00
2:56 AM,57.0,48.9,74,29.75,2.5,Calm,Calm,-,N/A,,Haze,0,2013-08-10 10:56:00
3:33 AM,57.2,48.2,72,29.75,2.5,Calm,Calm,-,N/A,,Haze,0,2013-08-10 11:33:00
3:56 AM,55.9,48.9,77,29.76,2.0,Calm,Calm,-,N/A,,Haze,0,2013-08-10 11:56:00
4:05 AM,53.6,48.2,82,29.76,-9999.0,Calm,Calm,-,N/A,,Haze,0,2013-08-10 12:05:00
4:54 AM,55.4,46.4,72,29.77,-9999.0,East,6.9,-,N/A,,Haze,90,2013-08-10 12:54:00
4:56 AM,55.9,46.9,72,29.78,3.0,East,5.8,-,N/A,,Haze,80,2013-08-10 12:56:00
5:10 AM,55.4,46.4,72,29.77,2.5,ENE,4.6,-,N/A,,Haze,60,2013-08-10 13:10:00
5:24 AM,55.4,46.4,72,29.78,-9999.0,East,5.8,-,N/A,,Haze,90,2013-08-10 13:24:00
5:56 AM,54.0,46.0,75,29.79,3.0,Calm,Calm,-,N/A,,Haze,0,2013-08-10 13:56:00
5:59 AM,53.6,46.4,77,29.79,3.0,SE,2.3,-,N/A,,Smoke,140,2013-08-10 13:59:00
6:07 AM,53.6,46.4,77,29.78,-9999.0,ESE,3.5,-,N/A,,Haze,110,2013-08-10 14:07:00
6:36 AM,53.6,46.4,77,29.77,-9999.0,East,6.9,-,N/A,,Haze,100,2013-08-10 14:36:00
6:54 AM,55.4,46.4,72,29.77,-9999.0,East,6.9,-,N/A,,Haze,80,2013-08-10 14:54:00
6:56 AM,55.0,46.0,72,29.78,3.0,East,6.9,-,N/A,,Haze,80,2013-08-10 14:56:00
6:59 AM,53.6,46.4,77,29.78,3.0,East,5.8,-,N/A,,Smoke,80,2013-08-10 14:59:00
7:21 AM,55.4,46.4,72,29.77,2.5,East,4.6,-,N/A,,Haze,100,2013-08-10 15:21:00
7:56 AM,55.9,46.0,69,29.79,2.0,Calm,Calm,-,N/A,,Haze,0,2013-08-10 15:56:00
7:57 AM,55.4,46.4,72,29.79,2.5,ENE,2.3,-,N/A,,Smoke,70,2013-08-10 15:57:00
8:33 AM,57.2,46.4,67,29.78,1.8,East,5.8,-,N/A,,Haze,80,2013-08-10 16:33:00
8:56 AM,57.9,46.0,65,29.79,1.5,ENE,6.9,-,N/A,,Haze,60,2013-08-10 16:56:00
8:57 AM,59.0,46.4,63,29.79,2.5,ENE,4.6,-,N/A,,Smoke,70,2013-08-10 16:57:00
9:13 AM,60.8,46.4,59,29.78,2.2,ENE,5.8,-,N/A,,Smoke,70,2013-08-10 17:13:00
9:45 AM,60.8,46.4,59,29.78,1.8,ENE,5.8,-,N/A,,Haze,60,2013-08-10 17:45:00
9:56 AM,60.1,46.9,62,29.78,1.8,ENE,5.8,-,N/A,,Haze,70,2013-08-10 17:56:00
10:29 AM,62.6,46.4,55,29.78,-9999.0,ENE,4.6,-,N/A,,Haze,70,2013-08-10 18:29:00
10:42 AM,64.4,46.4,52,29.78,-9999.0,ENE,5.8,-,N/A,,Haze,70,2013-08-10 18:42:00
10:56 AM,64.9,45.0,48,29.78,4.0,ENE,6.9,-,N/A,,Haze,60,2013-08-10 18:56:00
10:59 AM,64.4,44.6,49,29.78,4.0,ENE,4.6,-,N/A,,Smoke,70,2013-08-10 18:59:00
11:56 AM,68.0,43.0,40,29.78,10.0,NE,4.6,-,N/A,,Mostly Cloudy,40,2013-08-10 19:56:00
12:56 PM,68.0,45.0,43,29.78,10.0,East,8.1,-,0.00,Rain,Light Rain,80,2013-08-10 20:56:00
1:56 PM,66.0,48.9,54,29.79,10.0,WNW,5.8,-,0.00,,Overcast,300,2013-08-10 21:56:00
2:56 PM,64.9,46.9,52,29.82,10.0,West,9.2,-,N/A,,Overcast,260,2013-08-10 22:56:00
3:27 PM,64.4,48.2,56,29.83,-9999.0,West,13.8,-,N/A,,Haze,260,2013-08-10 23:27:00
3:52 PM,66.2,46.4,49,29.82,-9999.0,NNW,5.8,-,0.00,,Haze,330,2013-08-10 23:52:00
3:56 PM,66.0,46.0,48,29.82,3.0,North,9.2,-,0.00,,Haze,350,2013-08-10 23:56:00
4:54 PM,66.2,48.2,52,29.84,4.0,North,3.5,-,0.00,,Haze,10,2013-08-11 00:54:00
4:56 PM,66.0,48.0,52,29.84,4.0,NNE,4.6,-,0.00,,Haze,20,2013-08-11 00:56:00
5:21 PM,66.2,48.2,52,29.84,4.0,Calm,Calm,-,N/A,,Haze,0,2013-08-11 01:21:00
5:54 PM,66.2,44.6,46,29.85,6.0,WSW,10.4,-,N/A,,Haze,250,2013-08-11 01:54:00
5:56 PM,68.0,44.1,42,29.86,8.0,West,9.2,-,N/A,,Overcast,260,2013-08-11 01:56:00
6:56 PM,68.0,43.0,40,29.87,10.0,SW,8.1,-,N/A,,Clear,230,2013-08-11 02:56:00
7:56 PM,68.0,44.1,42,29.90,10.0,WSW,5.8,-,N/A,,Partly Cloudy,240,2013-08-11 03:56:00
8:56 PM,66.9,43.0,42,29.92,10.0,NW,4.6,-,N/A,,Clear,320,2013-08-11 04:56:00
9:56 PM,64.9,43.0,45,29.95,10.0,Calm,Calm,-,N/A,,Clear,0,2013-08-11 05:56:00
10:56 PM,55.9,45.0,67,29.97,10.0,East,3.5,-,N/A,,Partly Cloudy,80,2013-08-11 06:56:00
11:56 PM,54.0,45.0,72,29.99,10.0,ENE,3.5,-,N/A,,Clear,70,2013-08-11 07:56:00